Regional Weather Roundup
Issued by NWS

Current Version |  Previous Version |  Text Only |  Print | Product List |  Glossary On
Versions: 1 2 3 4 5 6 7 8 9 10 11 12 13 14 15 16 17 18 19 20 21 22 23 24 25 26 27 28 29 30 31 32 33 34 35 36 37 38 39 40 41 42 43 44 45 46 47 48 49 50
787
ASUS43 KDMX 150706
RWRIA

WEATHER ROUNDUP FOR IOWA
NATIONAL WEATHER SERVICE DES MOINES IA
200 AM CDT SAT JUN 15 2024

NOTE: "FAIR" INDICATES FEW OR NO CLOUDS BELOW 12,000 FEET WITH NO
SIGNIFICANT WEATHER AND/OR OBSTRUCTIONS TO VISIBILITY.

* - THESE STATIONS ARE NOT NWS STATIONS...THUS NOT UNDER NWS
QUALITY CONTROL.  THEY ALSO DO NOT REPORT WEATHER SUCH
AS PRECIPITATION OR FOG.

IAZ001>003-012>014-020>022-031>034-043>046-150800-
   NORTHWEST IOWA

CITY           SKY/WX    TMP DP  RH WIND       PRES   REMARKS
CARROLL *      CLOUDY    70  50  49 SE8       30.00F TC  21
CHEROKEE *     CLOUDY    73  48  40 SE9       29.98F TC  23
DENISON *      CLOUDY    75  52  43 SE13      29.99F TC  24
LE MARS *      CLOUDY    75  48  38 SE13G21   29.96R TC  24
MAURICE *      CLOUDY    73  46  38 SE15G22   29.97R TC  23
SHELDON *      CLOUDY    70  52  52 E8        29.99R TC  21
SIOUX CITY     CLOUDY    71  52  50 E7        29.97S TC  22
SPENCER        LGT RAIN  68  57  68 E10       30.01S TC  20
STORM LAKE *   CLOUDY    70  50  49 SE10      30.02S TC  21
$$

IAZ055>058-069>071-079>083-090>094-150800-
   SOUTHWEST IOWA

CITY           SKY/WX    TMP DP  RH WIND       PRES   REMARKS
ATLANTIC *     CLOUDY    73  50  43 E9        29.98F TC  23
AUDUBON *      CLOUDY    70  50  49 SE5       30.01F TC  21
CLARINDA *     MOCLDY    72  54  53 S5        30.00F TC  22
COUNCIL BLFS * CLOUDY    70  54  56 SE10      29.97F TC  21
CRESTON *      MOCLDY    68  52  56 E7        30.01F TC  20
HARLAN  *      CLEAR     72  50  46 SE6       29.97F TC  22
LAMONI         MOCLDY    70  52  52 SE3       30.02F TC  21
RED OAK *      CLOUDY    73  52  46 SE8       29.99S TC  23
SHENANDOAH *   CLOUDY    70  57  64 E7        29.97S TC  21
$$

IAZ047>049-059>061-072>074-084-150800-
   CENTRAL IOWA

CITY           SKY/WX    TMP DP  RH WIND       PRES   REMARKS
AMES           MOCLDY    67  54  63 CALM      30.04R TC  19
ANKENY *       MOCLDY    68  50  52 CALM      30.04S TC  20
BOONE *          N/A     68  54  60 SE6       30.02F TC  20
CHARITON *     MOCLDY    68  52  56 E7        30.02F TC  20
DES MOINES     CLOUDY    73  49  42 SE8       30.03S TC  23
GRINNELL*      PTCLDY    69  55  62 E6        30.06R TC  20
KNOXVILLE *    CLOUDY    68  50  52 SE6       30.03S TC  20
MARSHALLTOWN   MOCLDY    70  53  54 SE6       30.05R TC  21
NEWTON *       CLEAR     70  52  52 SE9       30.04R TC  21
PELLA *        PTCLDY    64  52  63 SE5       30.04S TC  18
PERRY *        MOCLDY    71  51  49 CALM      30.03S TC  22
$$

IAZ004>006-015-016-023>025-035-036-150800-
   NORTH CENTRAL IOWA

CITY           SKY/WX    TMP DP  RH WIND       PRES   REMARKS
ALGONA *       PTCLDY    68  55  64 SE7       30.03R TC  20
CLARION *      PTCLDY    72  55  56 SE9       30.05R TC  22
ESTHERVILLE    CLOUDY    67  56  67 SE8       30.02R TC  19
FORT DODGE *   MOCLDY    71  51  49 SE6       30.04S TC  22
MASON CITY     CLOUDY    68  53  58 SE9       30.06S TC  20
FOREST CITY *  CLOUDY    66  54  63 E6        30.04F TC  19
WEBSTER CITY * MOCLDY    68  52  56 SE7       30.02F TC  20
IOWA FALLS *   MOCLDY    70  51  52 SE6       30.06R TC  21
$$

IAZ007>011-017>019-026>030-037>042-050>054-066-150800-
   NORTHEAST IOWA

CITY           SKY/WX    TMP DP  RH WIND       PRES   REMARKS
CEDAR RAPIDS   PTCLDY    66  55  67 E9        30.04S TC  19
CHARLES CITY * CLOUDY    64  57  77 E6        30.06R TC  18
CLINTON *      PTCLDY    61  52  72 E8        30.07F TC  16
DECORAH *      MOCLDY    63  54  72 CALM      30.04F TC  17
DUBUQUE        MOCLDY    66  54  65 E12       30.07F TC  19
MONTICELLO *   MOCLDY    66  57  72 SE9       30.05F TC  19
OELWEIN *      MOCLDY    68  54  60 E9        30.06R TC  20
WATERLOO       MOCLDY    69  54  58 CALM      30.05R TC  21
$$

IAZ064-065-067-068-078-150800-
   EAST CENTRAL IOWA

CITY           SKY/WX    TMP DP  RH WIND       PRES   REMARKS
DAVENPORT      PTCLDY    63  53  70 E7        30.07F TC  17
IOWA CITY      PTCLDY    68  54  60 E7        30.05F TC  20
MT. PLEASANT * CLEAR     63  55  77 E3        30.05R TC  17
MUSCATINE *      N/A     63  55  77 CALM      30.05S TC  17
QUAD CITIES    CLEAR     62  54  74 E7        30.04F TC  17
$$

IAZ062-063-075>077-085>089-095>099-150800-
   SOUTHEAST IOWA

CITY           SKY/WX    TMP DP  RH WIND       PRES   REMARKS
BURLINGTON     CLEAR     68  56  65 E8        30.03F TC  20
FAIRFIELD *    CLEAR     61  50  67 E8        30.03S HAZE    TC  16
FORT MADISON * CLEAR     66  57  72 E6        30.03S TC  19
KEOKUK *       MOCLDY    63  57  82 CALM      30.03S TC  17
OSKALOOSA *    PTCLDY    67  52  59 E6        30.05R TC  20
OTTUMWA        PTCLDY    66  51  58 E6        30.04R TC  19
WASHINGTON *   CLEAR     61  52  72 E5        30.03R TC  16
$$

ABBREVIATIONS USED IN REMARKS
   TC - TEMPERATURES IN CELSIUS
  WCI - WIND CHILL INDEX
   HX - HEAT INDEX
  VSB - VISIBILITY
$$